This is the latest recevied weather packets stored in our database for station/object KMASWX. If no packets are shown the sender has not sent any weather packets the latest 1 day(s).
| Time | Temp. | Humidity | Pressure | Rain* | Wind** | Luminosity | Snow |
|---|---|---|---|---|---|---|---|
| 1778028894 | 28.33° C | 18% | - | 0 mm | 2.24 m/s, 151° | - | - |
| 1778028590 | 28.33° C | 18% | - | 0 mm | 1.79 m/s, 139° | - | - |
| 1778028284 | 28.33° C | 18% | - | 0 mm | 3.13 m/s, 165° | - | - |
| 1778027980 | 28.33° C | 18% | - | 0 mm | 2.68 m/s, 154° | - | - |
| 1778027677 | 28.33° C | 18% | - | 0 mm | 3.58 m/s, 137° | - | - |
| 1778027373 | 28.33° C | 17% | - | 0 mm | 3.13 m/s, 143° | - | - |
| 1778027070 | 29.44° C | 17% | - | 0 mm | 1.79 m/s, 157° | - | - |
| 1778026765 | 28.89° C | 18% | - | 0 mm | 0.89 m/s, 194° | - | - |
| 1778026462 | 28.33° C | 17% | - | 0 mm | 0.89 m/s, 135° | - | - |
| 1778026158 | 28.33° C | 17% | - | 0 mm | 0.89 m/s, 135° | - | - |
| 1778025854 | 28.33° C | 18% | - | 0 mm | 3.58 m/s, 143° | - | - |
| 1778025551 | 28.33° C | 18% | - | 0 mm | 3.58 m/s, 167° | - | - |
| 1778024941 | 28.89° C | 18% | - | 0 mm | 3.13 m/s, 161° | - | - |
| 1778024638 | 28.33° C | 17% | - | 0 mm | 1.34 m/s, 220° | - | - |
| 1778024334 | 28.33° C | 19% | - | 0 mm | 0 m/s | - | - |
| 1778024027 | 28.33° C | 18% | - | 0 mm | 2.24 m/s, 149° | - | - |
| 1778023723 | 27.78° C | 19% | - | 0 mm | 3.13 m/s, 182° | - | - |
| 1778023420 | 28.33° C | 19% | - | 0 mm | 1.34 m/s, 261° | - | - |
| 1778023113 | 27.22° C | 18% | - | 0 mm | 2.24 m/s, 225° | - | - |
| 1778022505 | 27.78° C | 17% | - | 0 mm | 1.79 m/s, 168° | - | - |
| 1778022202 | 27.78° C | 18% | - | 0 mm | 2.24 m/s, 181° | - | - |
| 1778021592 | 27.22° C | 18% | - | 0 mm | 1.79 m/s, 129° | - | - |
| 1778021288 | 27.78° C | 19% | - | 0 mm | 0.45 m/s, 286° | - | - |
| 1778020985 | 27.78° C | 20% | - | 0 mm | 2.24 m/s, 212° | - | - |
| 1778020678 | 27.22° C | 19% | - | 0 mm | 2.68 m/s, 229° | - | - |
* Rain latest 24 hours (hover to see other rain measurements)
** Current wind speed in m/s (hover to see current wind gust speed)